Date String (YYYY-MM-DD hh:mm:ss) UTC,Instrument flags,absolute air pressure of the measurement (hPa),sample flow rate (lpm),inlet stack bypass flow (lpm),air temperature of the measurement (°C),ambient temperature measured by the external sensor (°C),aerosol sample conditioner tube jacket temperature (°C),OPC LED temperature (°C),internal box temperature (°C),relative humidity of the measurement (%),span deviation,mass concentration of particles derived from Lorenz-Mie calculation of OPC scattering (μg/m³),mass concentration of particles derived from Lorenz-Mie calculation of OPC scattering (μg/m³),mass concentration of particles derived from Lorenz-Mie calculation of OPC scattering (μg/m³)
DateTimeUTC,F1_M11,P_M11,Q1_M11,Q2_M11,T1_M11,T2_M11,T3_M11,T4_M11,T5_M11,U1_M11,ZSPAN_M11,X2_M11,X0_M11,X1_M11
2024-04-23 06:00:00,SystemResetWarning,0824.7,5.00,000.00,026.0,025.2,000.0,034.3,027.7,014.7,0000.0,0003.35,0008.73,0002.24
2024-04-23 06:01:00,SystemResetWarning,0824.7,5.00,000.00,026.0,025.2,000.0,034.3,027.7,015.0,0000.0,0003.33,0008.55,0002.26
2024-04-23 06:02:00,SystemResetWarning,0824.7,4.99,000.00,026.0,025.2,000.0,034.3,027.7,015.0,0000.0,0003.29,0008.17,0002.26
2024-04-23 06:03:00,SystemResetWarning,0824.8,5.00,000.00,026.0,025.2,000.0,034.4,027.8,015.6,0000.0,0003.29,0007.83,0002.25
2024-04-23 06:04:00,SystemResetWarning,0824.7,5.01,000.00,026.0,025.2,000.0,034.4,027.7,016.0,0000.0,0003.29,0007.77,0002.26
2024-04-23 06:05:00,SystemResetWarning,0824.7,5.02,000.00,026.0,025.2,000.0,034.4,027.7,015.9,0000.0,0003.29,0007.76,0002.26
2024-04-23 06:06:00,SystemResetWarning,0824.8,4.99,000.00,026.0,025.2,000.0,034.4,027.8,015.6,0000.0,0003.29,0007.87,0002.28
2024-04-23 06:07:00,SystemResetWarning,0824.7,4.99,000.00,026.0,025.2,000.0,034.4,027.8,015.5,0000.0,0003.26,0008.01,0002.27
2024-04-23 06:08:00,SystemResetWarning,0824.8,5.00,000.00,026.0,025.2,000.0,034.4,027.7,015.3,0000.0,0003.27,0008.42,0002.26
2024-04-23 06:09:00,SystemResetWarning,0824.8,5.01,000.00,026.0,025.2,000.0,034.4,027.7,015.2,0000.0,0003.26,0008.90,0002.27
2024-04-23 06:10:00,SystemResetWarning,0824.7,5.01,000.00,026.0,025.2,000.0,034.4,027.7,014.6,0000.0,0003.26,0009.02,0002.25
2024-04-23 06:11:00,SystemResetWarning,0824.7,5.00,000.00,026.0,025.2,000.0,034.4,027.7,014.4,0000.0,0003.25,0009.34,0002.25
2024-04-23 06:12:00,SystemResetWarning,0824.7,4.99,000.00,026.0,025.2,000.0,034.4,027.8,014.3,0000.0,0003.24,0009.17,0002.24
2024-04-23 06:13:00,SystemResetWarning,0824.7,4.99,000.00,026.0,025.2,000.0,034.4,027.8,014.3,0000.0,0003.25,0009.75,0002.24
2024-04-23 06:14:00,SystemResetWarning,0824.7,5.01,000.00,026.0,025.2,000.0,034.4,027.8,014.2,0000.0,0003.29,0009.97,0002.25
2024-04-23 06:15:00,SystemResetWarning,0824.8,5.01,000.00,026.0,025.3,000.0,034.4,027.8,013.9,0000.0,0003.29,0010.60,0002.24
2024-04-23 06:16:00,SystemResetWarning,0824.7,4.99,000.00,026.0,025.3,000.0,034.4,027.8,013.9,0000.0,0003.31,0010.81,0002.26
2024-04-23 06:17:00,SystemResetWarning,0824.8,4.99,000.00,026.0,025.3,000.0,034.4,027.8,014.0,0000.0,0003.32,0010.91,0002.25
2024-04-23 06:18:00,SystemResetWarning,0824.8,4.99,000.00,026.0,025.3,000.0,034.4,027.8,015.1,0000.0,0003.36,0010.76,0002.26
2024-04-23 06:19:00,SystemResetWarning,0824.8,5.00,000.00,026.0,025.3,000.0,034.4,027.8,016.0,0000.0,0003.37,0010.91,0002.27
2024-04-23 06:20:00,SystemResetWarning,0824.8,5.01,000.00,026.0,025.3,000.0,034.4,027.8,015.5,0000.0,0003.39,0010.55,0002.26
2024-04-23 06:21:00,SystemResetWarning,0824.8,5.01,000.00,026.0,025.3,000.0,034.5,027.8,015.9,0000.0,0003.39,0010.07,0002.27
2024-04-23 06:22:00,SystemResetWarning,0824.8,5.00,000.00,026.0,025.2,000.0,034.5,027.8,015.0,0000.0,0003.42,0009.45,0002.28
2024-04-23 06:23:00,SystemResetWarning,0824.8,4.99,000.00,026.0,025.2,000.0,034.5,027.8,014.9,0000.0,0003.45,0009.61,0002.29
2024-04-23 06:24:00,SystemResetWarning,0824.8,4.99,000.00,026.1,025.3,000.0,034.5,027.8,014.4,0000.0,0003.48,0009.41,0002.30
2024-04-23 06:25:00,SystemResetWarning,0824.8,5.00,000.00,026.1,025.3,000.0,034.5,027.8,014.1,0000.0,0003.44,0009.22,0002.30
2024-04-23 06:26:00,SystemResetWarning,0824.8,5.00,000.00,026.1,025.3,000.0,034.5,027.9,013.8,0000.0,0003.44,0008.64,0002.32
2024-04-23 06:27:00,SystemResetWarning,0824.8,5.00,000.00,026.1,025.3,000.0,034.5,027.9,013.8,0000.0,0003.42,0008.48,0002.31
2024-04-23 06:28:00,SystemResetWarning,0824.8,4.99,000.00,026.1,025.3,000.0,034.5,027.9,013.9,0000.0,0003.42,0008.41,0002.30
2024-04-23 06:29:00,SystemResetWarning,0824.8,5.00,000.00,026.1,025.3,000.0,034.5,027.9,014.4,0000.0,0003.41,0008.38,0002.31
2024-04-23 06:30:00,SystemResetWarning,0824.9,5.00,000.00,026.1,025.3,000.0,034.5,027.9,014.9,0000.0,0003.41,0007.80,0002.30
2024-04-23 06:31:00,SystemResetWarning,0824.9,5.01,000.00,026.1,025.3,000.0,034.5,027.8,015.2,0000.0,0003.39,0007.56,0002.30
2024-04-23 06:32:00,SystemResetWarning,0824.9,5.00,000.00,026.1,025.3,000.0,034.5,027.9,015.6,0000.0,0003.40,0008.49,0002.31
2024-04-23 06:33:00,SystemResetWarning,0824.9,5.00,000.00,026.1,025.3,000.0,034.5,027.9,015.8,0000.0,0003.37,0008.77,0002.31
2024-04-23 06:34:00,SystemResetWarning,0824.9,4.99,000.00,026.1,025.3,000.0,034.5,027.9,016.0,0000.0,0003.39,0009.06,0002.32
2024-04-23 06:35:00,SystemResetWarning,0824.9,4.99,000.00,026.1,025.3,000.0,034.5,027.9,016.1,0000.0,0003.37,0009.20,0002.31
2024-04-23 06:36:00,SystemResetWarning,0824.9,5.01,000.00,026.1,025.3,000.0,034.5,027.9,016.6,0000.0,0003.40,0009.25,0002.32
2024-04-23 06:37:00,SystemResetWarning,0825.0,5.01,000.00,026.1,025.3,000.0,034.5,027.9,016.3,0000.0,0003.39,0009.15,0002.32
2024-04-23 06:38:00,SystemResetWarning,0824.9,5.00,000.00,026.1,025.3,000.0,034.5,027.9,016.2,0000.0,0003.38,0009.59,0002.34
2024-04-23 06:39:00,SystemResetWarning,0825.0,4.99,000.00,026.1,025.3,000.0,034.5,027.9,016.0,0000.0,0003.40,0009.76,0002.36
2024-04-23 06:40:00,SystemResetWarning,0825.0,4.98,000.00,026.1,025.3,000.0,034.5,027.8,015.9,0000.0,0003.44,0009.84,0002.37
2024-04-23 06:41:00,SystemResetWarning,0825.0,5.01,000.00,026.1,025.3,000.0,034.5,027.9,015.6,0000.0,0003.44,0009.96,0002.40
2024-04-23 06:42:00,SystemResetWarning,0825.0,5.01,000.00,026.1,025.3,000.0,034.5,027.8,015.4,0000.0,0003.45,0009.91,0002.39
2024-04-23 06:43:00,SystemResetWarning,0825.0,4.98,000.00,026.1,025.3,000.0,034.5,027.8,015.2,0000.0,0003.45,0008.99,0002.39
2024-04-23 06:44:00,SystemResetWarning,0825.0,5.00,000.00,026.1,025.3,000.0,034.5,027.8,015.0,0000.0,0003.46,0008.92,0002.40
2024-04-23 06:45:00,SystemResetWarning,0825.0,5.01,000.00,026.1,025.3,000.0,034.5,027.8,014.9,0000.0,0003.44,0009.27,0002.40
2024-04-23 06:46:00,SystemResetWarning,0825.0,5.01,000.00,026.1,025.3,000.0,034.5,027.8,014.8,0000.0,0003.44,0008.82,0002.41
2024-04-23 06:47:00,SystemResetWarning,0825.0,4.99,000.00,026.1,025.3,000.0,034.5,027.8,014.9,0000.0,0003.48,0008.85,0002.43
2024-04-23 06:48:00,SystemResetWarning,0825.1,4.99,000.00,026.1,025.3,000.0,034.5,027.8,015.0,0000.0,0003.53,0009.00,0002.44
2024-04-23 06:49:00,SystemResetWarning,0825.0,4.99,000.00,026.1,025.3,000.0,034.5,027.8,015.0,0000.0,0003.57,0008.94,0002.43
2024-04-23 06:50:00,SystemResetWarning,0825.1,5.01,000.00,026.1,025.3,000.0,034.5,027.8,015.1,0000.0,0003.57,0009.21,0002.43
2024-04-23 06:51:00,SystemResetWarning,0825.1,5.00,000.00,026.1,025.3,000.0,034.5,027.9,015.1,0000.0,0003.53,0009.12,0002.44
2024-04-23 06:52:00,SystemResetWarning,0825.1,4.99,000.00,026.1,025.3,000.0,034.5,027.9,015.2,0000.0,0003.52,0008.93,0002.42
2024-04-23 06:53:00,SystemResetWarning,0825.1,5.00,000.00,026.1,025.3,000.0,034.5,027.9,015.4,0000.0,0003.52,0008.91,0002.44
2024-04-23 06:54:00,SystemResetWarning,0825.1,5.00,000.00,026.1,025.3,000.0,034.5,027.8,015.4,0000.0,0003.49,0008.83,0002.44
2024-04-23 06:55:00,SystemResetWarning,0825.2,4.99,000.00,026.1,025.3,000.0,034.5,027.9,015.6,0000.0,0003.54,0008.92,0002.45
2024-04-23 06:56:00,SystemResetWarning,0825.2,5.00,000.00,026.1,025.3,000.0,034.5,027.9,015.8,0000.0,0003.54,0008.12,0002.45
2024-04-23 06:57:00,SystemResetWarning,0825.2,5.01,000.00,026.1,025.4,000.0,034.6,027.9,016.4,0000.0,0003.55,0007.98,0002.46
2024-04-23 06:58:00,SystemResetWarning,0825.3,5.00,000.00,026.1,025.4,000.0,034.6,027.9,016.7,0000.0,0003.52,0008.20,0002.46
2024-04-23 06:59:00,SystemResetWarning,0825.3,5.00,000.00,026.1,025.4,000.0,034.6,028.0,016.8,0000.0,0003.53,0008.62,0002.46
